Time,TemperatureF,DewpointF,PressureIn,WindDirection,WindDirectionDegrees,WindSpeedMPH,WindSpeedGustMPH,Humidity,HourlyPrecipIn,Conditions,Clouds,dailyrainin,SoftwareType,DateUTC
2013-01-12 00:02:00,34.0,34.0,-100.00,North,-999,0.0,-999.0,98,0.00,,,-99.99,,2013-01-12 08:02:00,
2013-01-12 00:11:00,34.0,34.0,-100.00,North,-999,0.0,-999.0,98,0.00,,,-99.99,,2013-01-12 08:11:00,
2013-01-12 00:22:00,34.0,34.0,-100.00,North,-999,0.0,-999.0,98,0.00,,,-99.99,,2013-01-12 08:22:00,
2013-01-12 00:30:00,34.0,34.0,-100.00,North,-999,0.0,-999.0,98,0.00,,,-99.99,,2013-01-12 08:30:00,
2013-01-12 00:52:00,34.0,34.0,-100.00,North,-999,0.0,-999.0,98,0.00,,,-99.99,,2013-01-12 08:52:00,
2013-01-12 01:02:00,34.0,34.0,-100.00,North,-999,0.0,-999.0,98,0.00,,,-99.99,,2013-01-12 09:02:00,
2013-01-12 01:12:00,34.0,34.0,-100.00,North,-999,0.0,-999.0,98,0.00,,,-99.99,,2013-01-12 09:12:00,
2013-01-12 01:22:00,34.0,34.0,-100.00,North,-999,0.0,-999.0,98,0.00,,,-99.99,,2013-01-12 09:22:00,
2013-01-12 01:30:00,34.0,34.0,-100.00,North,-999,0.0,-999.0,98,0.00,,,-99.99,,2013-01-12 09:30:00,
2013-01-12 01:53:00,34.0,34.0,-100.00,North,-999,0.0,-999.0,98,0.00,,,-99.99,,2013-01-12 09:53:00,
2013-01-12 02:02:00,34.0,34.0,-100.00,North,-999,0.0,-999.0,98,0.00,,,-99.99,,2013-01-12 10:02:00,
2013-01-12 02:11:00,34.0,34.0,-100.00,North,-999,0.0,-999.0,98,0.00,,,-99.99,,2013-01-12 10:11:00,
2013-01-12 02:22:00,34.0,34.0,-100.00,North,-999,0.0,-999.0,98,0.00,,,-99.99,,2013-01-12 10:22:00,
2013-01-12 02:30:00,34.0,34.0,-100.00,North,-999,0.0,-999.0,98,0.00,,,-99.99,,2013-01-12 10:30:00,
2013-01-12 02:52:00,34.0,34.0,-100.00,North,-999,0.0,-999.0,98,0.00,,,-99.99,,2013-01-12 10:52:00,
2013-01-12 03:02:00,34.0,34.0,-100.00,North,-999,0.0,-999.0,98,0.00,,,-99.99,,2013-01-12 11:02:00,
2013-01-12 03:12:00,34.0,34.0,-100.00,North,-999,0.0,-999.0,98,0.00,,,-99.99,,2013-01-12 11:12:00,
2013-01-12 03:22:00,34.0,34.0,-100.00,North,-999,0.0,-999.0,98,0.00,,,-99.99,,2013-01-12 11:22:00,
2013-01-12 03:30:00,34.0,33.0,-100.00,North,-999,0.0,-999.0,97,0.00,,,-99.99,,2013-01-12 11:30:00,
2013-01-12 03:53:00,34.0,33.0,-100.00,North,-999,0.0,-999.0,97,0.00,,,-99.99,,2013-01-12 11:53:00,
2013-01-12 04:02:00,34.0,33.0,-100.00,North,-999,0.0,-999.0,97,0.00,,,-99.99,,2013-01-12 12:02:00,
2013-01-12 04:12:00,34.0,33.0,-100.00,North,-999,0.0,-999.0,97,0.00,,,-99.99,,2013-01-12 12:12:00,
2013-01-12 04:22:00,34.0,33.0,-100.00,North,-999,0.0,-999.0,97,0.00,,,-99.99,,2013-01-12 12:22:00,
2013-01-12 04:30:00,34.0,33.0,-100.00,North,-999,0.0,-999.0,97,0.00,,,-99.99,,2013-01-12 12:30:00,
2013-01-12 04:53:00,34.0,33.0,-100.00,North,-999,0.0,-999.0,97,0.00,,,-99.99,,2013-01-12 12:53:00,
2013-01-12 05:02:00,34.0,33.0,-100.00,North,-999,0.0,-999.0,97,0.00,,,-99.99,,2013-01-12 13:02:00,
2013-01-12 05:12:00,34.0,33.0,-100.00,North,-999,0.0,-999.0,97,0.00,,,-99.99,,2013-01-12 13:12:00,
2013-01-12 05:22:00,34.0,33.0,-100.00,North,-999,0.0,-999.0,97,0.00,,,-99.99,,2013-01-12 13:22:00,
2013-01-12 05:30:00,34.0,33.0,-100.00,North,-999,0.0,-999.0,96,0.00,,,-99.99,,2013-01-12 13:30:00,
2013-01-12 05:53:00,34.0,33.0,-100.00,North,-999,0.0,-999.0,96,0.00,,,-99.99,,2013-01-12 13:53:00,
2013-01-12 06:02:00,34.0,33.0,-100.00,North,-999,0.0,-999.0,96,0.00,,,-99.99,,2013-01-12 14:02:00,
2013-01-12 06:12:00,34.0,33.0,-100.00,North,-999,0.0,-999.0,96,0.00,,,-99.99,,2013-01-12 14:12:00,
2013-01-12 06:22:00,34.0,33.0,-100.00,North,-999,0.0,-999.0,96,0.00,,,-99.99,,2013-01-12 14:22:00,
2013-01-12 06:30:00,34.0,33.0,-100.00,North,-999,0.0,-999.0,96,0.00,,,-99.99,,2013-01-12 14:30:00,
2013-01-12 06:53:00,34.0,33.0,-100.00,North,-999,0.0,-999.0,96,0.00,,,-99.99,,2013-01-12 14:53:00,
2013-01-12 07:03:00,34.0,33.0,-100.00,North,-999,0.0,-999.0,96,0.00,,,-99.99,,2013-01-12 15:03:00,
2013-01-12 07:12:00,34.0,33.0,-100.00,North,-999,0.0,-999.0,96,0.00,,,-99.99,,2013-01-12 15:12:00,
2013-01-12 07:22:00,34.0,33.0,-100.00,North,-999,0.0,-999.0,96,0.00,,,-99.99,,2013-01-12 15:22:00,
2013-01-12 07:30:00,33.0,32.0,-100.00,North,-999,0.0,-999.0,96,0.00,,,-99.99,,2013-01-12 15:30:00,
2013-01-12 07:53:00,33.0,32.0,-100.00,North,-999,0.0,-999.0,96,0.00,,,-99.99,,2013-01-12 15:53:00,
2013-01-12 08:03:00,33.0,32.0,-100.00,North,-999,0.0,-999.0,96,0.00,,,-99.99,,2013-01-12 16:03:00,
2013-01-12 08:12:00,33.0,32.0,-100.00,North,-999,0.0,-999.0,96,0.00,,,-99.99,,2013-01-12 16:12:00,
2013-01-12 08:22:00,33.0,32.0,-100.00,North,-999,0.0,-999.0,96,0.00,,,-99.99,,2013-01-12 16:22:00,
2013-01-12 08:30:00,34.0,33.0,-100.00,North,-999,0.0,-999.0,96,0.00,,,-99.99,,2013-01-12 16:30:00,
2013-01-12 08:53:00,34.0,33.0,-100.00,North,-999,0.0,-999.0,96,0.00,,,-99.99,,2013-01-12 16:53:00,
2013-01-12 09:02:00,34.0,33.0,-100.00,North,-999,0.0,-999.0,96,0.00,,,-99.99,,2013-01-12 17:02:00,
2013-01-12 09:12:00,34.0,33.0,-100.00,North,-999,0.0,-999.0,96,0.00,,,-99.99,,2013-01-12 17:12:00,
2013-01-12 09:22:00,34.0,33.0,-100.00,North,-999,0.0,-999.0,96,0.00,,,-99.99,,2013-01-12 17:22:00,
2013-01-12 09:30:00,35.0,33.0,-100.00,North,-999,0.0,-999.0,92,0.00,,,-99.99,,2013-01-12 17:30:00,
2013-01-12 09:53:00,35.0,33.0,-100.00,North,-999,0.0,-999.0,92,0.00,,,-99.99,,2013-01-12 17:53:00,
2013-01-12 10:02:00,35.0,33.0,-100.00,North,-999,0.0,-999.0,92,0.00,,,-99.99,,2013-01-12 18:02:00,
2013-01-12 10:12:00,35.0,33.0,-100.00,North,-999,0.0,-999.0,92,0.00,,,-99.99,,2013-01-12 18:12:00,
2013-01-12 10:22:00,35.0,33.0,-100.00,North,-999,0.0,-999.0,92,0.00,,,-99.99,,2013-01-12 18:22:00,
2013-01-12 10:30:00,37.0,34.0,-100.00,SSE,163,0.0,-999.0,89,0.00,,,-99.99,,2013-01-12 18:30:00,
2013-01-12 10:53:00,37.0,34.0,-100.00,SSE,163,0.0,-999.0,89,0.00,,,-99.99,,2013-01-12 18:53:00,
2013-01-12 11:03:00,37.0,34.0,-100.00,SSE,163,0.0,-999.0,89,0.00,,,-99.99,,2013-01-12 19:03:00,
2013-01-12 11:12:00,37.0,34.0,-100.00,SSE,163,0.0,-999.0,89,0.00,,,-99.99,,2013-01-12 19:12:00,
2013-01-12 11:22:00,37.0,34.0,-100.00,SSE,163,0.0,-999.0,89,0.00,,,-99.99,,2013-01-12 19:22:00,
2013-01-12 11:30:00,39.0,35.0,-100.00,South,169,0.0,-999.0,84,0.00,,,-99.99,,2013-01-12 19:30:00,
2013-01-12 11:53:00,39.0,35.0,-100.00,South,169,0.0,-999.0,84,0.00,,,-99.99,,2013-01-12 19:53:00,
2013-01-12 12:02:00,39.0,35.0,-100.00,South,169,0.0,-999.0,84,0.00,,,-99.99,,2013-01-12 20:02:00,
2013-01-12 12:12:00,39.0,35.0,-100.00,South,169,0.0,-999.0,84,0.00,,,-99.99,,2013-01-12 20:12:00,
2013-01-12 12:22:00,39.0,35.0,-100.00,South,169,0.0,-999.0,84,0.00,,,-99.99,,2013-01-12 20:22:00,
2013-01-12 12:30:00,41.0,36.0,-100.00,ESE,118,0.0,-999.0,81,0.00,,,-99.99,,2013-01-12 20:30:00,
2013-01-12 12:53:00,41.0,36.0,-100.00,ESE,118,0.0,-999.0,81,0.00,,,-99.99,,2013-01-12 20:53:00,
2013-01-12 13:02:00,41.0,36.0,-100.00,ESE,118,0.0,-999.0,81,0.00,,,-99.99,,2013-01-12 21:02:00,
2013-01-12 13:12:00,41.0,36.0,-100.00,ESE,118,0.0,-999.0,81,0.00,,,-99.99,,2013-01-12 21:12:00,
2013-01-12 13:22:00,41.0,36.0,-100.00,ESE,118,0.0,-999.0,81,0.00,,,-99.99,,2013-01-12 21:22:00,
2013-01-12 13:30:00,42.0,33.0,-100.00,NNE,32,1.0,-999.0,70,0.00,,,-99.99,,2013-01-12 21:30:00,
2013-01-12 13:53:00,42.0,33.0,-100.00,NNE,32,1.0,-999.0,70,0.00,,,-99.99,,2013-01-12 21:53:00,
2013-01-12 14:02:00,42.0,33.0,-100.00,NNE,32,1.0,-999.0,70,0.00,,,-99.99,,2013-01-12 22:02:00,
2013-01-12 14:12:00,42.0,33.0,-100.00,NNE,32,1.0,-999.0,70,0.00,,,-99.99,,2013-01-12 22:12:00,
2013-01-12 14:22:00,42.0,33.0,-100.00,NNE,32,1.0,-999.0,70,0.00,,,-99.99,,2013-01-12 22:22:00,
2013-01-12 14:30:00,44.0,34.0,-100.00,East,95,1.0,-999.0,68,0.00,,,-99.99,,2013-01-12 22:30:00,
2013-01-12 14:53:00,44.0,34.0,-100.00,East,95,1.0,-999.0,68,0.00,,,-99.99,,2013-01-12 22:53:00,
2013-01-12 15:02:00,44.0,34.0,-100.00,East,95,1.0,-999.0,68,0.00,,,-99.99,,2013-01-12 23:02:00,
2013-01-12 15:12:00,44.0,34.0,-100.00,East,95,1.0,-999.0,68,0.00,,,-99.99,,2013-01-12 23:12:00,
2013-01-12 15:22:00,44.0,34.0,-100.00,East,95,1.0,-999.0,68,0.00,,,-99.99,,2013-01-12 23:22:00,
2013-01-12 15:30:00,43.0,31.0,-100.00,NNE,16,3.0,-999.0,64,0.00,,,-99.99,,2013-01-12 23:30:00,
2013-01-12 15:53:00,43.0,31.0,-100.00,NNE,16,3.0,-999.0,64,0.00,,,-99.99,,2013-01-12 23:53:00,
2013-01-12 16:02:00,43.0,31.0,-100.00,NNE,16,3.0,-999.0,64,0.00,,,-99.99,,2013-01-13 00:02:00,
2013-01-12 16:12:00,43.0,31.0,-100.00,NNE,16,3.0,-999.0,64,0.00,,,-99.99,,2013-01-13 00:12:00,
2013-01-12 16:22:00,43.0,31.0,-100.00,NNE,16,3.0,-999.0,64,0.00,,,-99.99,,2013-01-13 00:22:00,
2013-01-12 16:30:00,41.0,33.0,-100.00,ENE,72,1.0,-999.0,71,0.00,,,-99.99,,2013-01-13 00:30:00,
2013-01-12 16:53:00,41.0,33.0,-100.00,ENE,72,1.0,-999.0,71,0.00,,,-99.99,,2013-01-13 00:53:00,
2013-01-12 17:02:00,41.0,33.0,-100.00,ENE,72,1.0,-999.0,71,0.00,,,-99.99,,2013-01-13 01:02:00,
2013-01-12 17:12:00,41.0,33.0,-100.00,ENE,72,1.0,-999.0,71,0.00,,,-99.99,,2013-01-13 01:12:00,
2013-01-12 17:22:00,41.0,33.0,-100.00,ENE,72,1.0,-999.0,71,0.00,,,-99.99,,2013-01-13 01:22:00,
2013-01-12 17:30:00,39.0,32.0,-100.00,NNE,24,1.0,-999.0,75,0.00,,,-99.99,,2013-01-13 01:30:00,
2013-01-12 17:53:00,39.0,32.0,-100.00,NNE,24,1.0,-999.0,75,0.00,,,-99.99,,2013-01-13 01:53:00,
2013-01-12 18:02:00,39.0,32.0,-100.00,NNE,24,1.0,-999.0,75,0.00,,,-99.99,,2013-01-13 02:02:00,
2013-01-12 18:12:00,39.0,32.0,-100.00,NNE,24,1.0,-999.0,75,0.00,,,-99.99,,2013-01-13 02:12:00,
2013-01-12 18:22:00,39.0,32.0,-100.00,NNE,24,1.0,-999.0,75,0.00,,,-99.99,,2013-01-13 02:22:00,
2013-01-12 18:30:00,34.0,29.0,-100.00,SSW,196,0.0,-999.0,81,0.00,,,-99.99,,2013-01-13 02:30:00,
2013-01-12 18:53:00,34.0,29.0,-100.00,SSW,196,0.0,-999.0,81,0.00,,,-99.99,,2013-01-13 02:53:00,
2013-01-12 19:02:00,34.0,29.0,-100.00,SSW,196,0.0,-999.0,81,0.00,,,-99.99,,2013-01-13 03:02:00,
2013-01-12 19:12:00,34.0,29.0,-100.00,SSW,196,0.0,-999.0,81,0.00,,,-99.99,,2013-01-13 03:12:00,
2013-01-12 19:22:00,34.0,29.0,-100.00,SSW,196,0.0,-999.0,81,0.00,,,-99.99,,2013-01-13 03:22:00,
2013-01-12 19:30:00,36.0,31.0,-100.00,ENE,62,2.0,-999.0,82,0.00,,,-99.99,,2013-01-13 03:30:00,
2013-01-12 19:53:00,36.0,31.0,-100.00,ENE,62,2.0,-999.0,82,0.00,,,-99.99,,2013-01-13 03:53:00,
2013-01-12 20:02:00,36.0,31.0,-100.00,ENE,62,2.0,-999.0,82,0.00,,,-99.99,,2013-01-13 04:02:00,
2013-01-12 20:12:00,36.0,31.0,-100.00,ENE,62,2.0,-999.0,82,0.00,,,-99.99,,2013-01-13 04:12:00,
2013-01-12 20:22:00,36.0,31.0,-100.00,ENE,62,2.0,-999.0,82,0.00,,,-99.99,,2013-01-13 04:22:00,
2013-01-12 20:30:00,32.0,29.0,-100.00,North,-999,0.0,-999.0,92,0.00,,,-99.99,,2013-01-13 04:30:00,
2013-01-12 20:52:00,32.0,29.0,-100.00,North,-999,0.0,-999.0,92,0.00,,,-99.99,,2013-01-13 04:52:00,
2013-01-12 21:03:00,32.0,29.0,-100.00,North,-999,0.0,-999.0,92,0.00,,,-99.99,,2013-01-13 05:03:00,
2013-01-12 21:12:00,32.0,29.0,-100.00,North,-999,0.0,-999.0,92,0.00,,,-99.99,,2013-01-13 05:12:00,
2013-01-12 21:22:00,32.0,29.0,-100.00,North,-999,0.0,-999.0,92,0.00,,,-99.99,,2013-01-13 05:22:00,
2013-01-12 21:30:00,32.0,30.0,-100.00,North,-999,0.0,-999.0,93,0.00,,,-99.99,,2013-01-13 05:30:00,
2013-01-12 21:53:00,32.0,30.0,-100.00,North,-999,0.0,-999.0,93,0.00,,,-99.99,,2013-01-13 05:53:00,
2013-01-12 22:02:00,32.0,30.0,-100.00,North,-999,0.0,-999.0,93,0.00,,,-99.99,,2013-01-13 06:02:00,
2013-01-12 22:12:00,32.0,30.0,-100.00,North,-999,0.0,-999.0,93,0.00,,,-99.99,,2013-01-13 06:12:00,
2013-01-12 22:22:00,32.0,30.0,-100.00,North,-999,0.0,-999.0,93,0.00,,,-99.99,,2013-01-13 06:22:00,
2013-01-12 22:30:00,32.0,30.0,-100.00,North,-999,0.0,-999.0,91,0.00,,,-99.99,,2013-01-13 06:30:00,
2013-01-12 22:52:00,32.0,30.0,-100.00,North,-999,0.0,-999.0,91,0.00,,,-99.99,,2013-01-13 06:52:00,
2013-01-12 23:02:00,32.0,30.0,-100.00,North,-999,0.0,-999.0,91,0.00,,,-99.99,,2013-01-13 07:02:00,
2013-01-12 23:12:00,32.0,30.0,-100.00,North,-999,0.0,-999.0,91,0.00,,,-99.99,,2013-01-13 07:12:00,
2013-01-12 23:22:00,32.0,30.0,-100.00,North,-999,0.0,-999.0,91,0.00,,,-99.99,,2013-01-13 07:22:00,
2013-01-12 23:30:00,32.0,29.0,-100.00,North,-999,0.0,-999.0,89,0.00,,,-99.99,,2013-01-13 07:30:00,
2013-01-12 23:52:00,32.0,29.0,-100.00,North,-999,0.0,-999.0,89,0.00,,,-99.99,,2013-01-13 07:52:00,